Tracking 30970 objects as of 3-Jul-2025
HD Live streaming from Space Station
objects crossing your sky now

DMSP 5D-2 F13 DEB

Track DMSP 5D-2 F13 DEB now!
10-day predictions


NORAD ID: 40504
Int'l Code: 1995-015CT
Perigee: 803.0 km
Apogee: 875.1 km
Inclination: 99.0 °
Period: 101.5 minutes
Semi major axis: 7210 km
RCS: Unknown
Launch date: March 24, 1995
Source: United States (US)
Launch site: AIR FORCE WESTERN TEST RANGE (AFWTR)

Note: This is SATELLITE DEBRIS
Your satellite tracking list
Your tracking list is empty




NASA's NSSDC Master Catalog

Two Line Element Set (TLE):
1 40504U 95015CT  25183.42212145  .00002347  00000-0  11523-2 0  9993
2 40504  99.0236 178.2677 0050028  37.3727 323.0911 14.18063354529376
Source of the keplerian elements: AFSPC